TimeCST,TemperatureF,Dew PointF,Humidity,Sea Level PressureIn,VisibilityMPH,Wind Direction,Wind SpeedMPH,Gust SpeedMPH,PrecipitationIn,Events,Conditions,WindDirDegrees,DateUTC
12:37 AM,59.0,57.2,94,29.92,1.8,Calm,Calm,-,N/A,,Clear,0,2012-12-08 06:37:00
12:53 AM,57.9,55.9,93,29.91,7.0,Calm,Calm,-,N/A,,Clear,0,2012-12-08 06:53:00
1:17 AM,59.0,57.2,94,29.92,1.8,Calm,Calm,-,N/A,,Clear,0,2012-12-08 07:17:00
1:25 AM,57.2,55.4,94,29.92,0.2,Calm,Calm,-,N/A,Fog,Fog,0,2012-12-08 07:25:00
1:40 AM,57.2,55.4,94,29.92,0.2,Calm,Calm,-,N/A,Fog,Fog,0,2012-12-08 07:40:00
1:45 AM,57.2,55.4,94,29.92,0.5,Calm,Calm,-,N/A,Fog,Fog,0,2012-12-08 07:45:00
1:53 AM,55.9,55.0,97,29.92,0.5,Calm,Calm,-,N/A,Fog,Fog,0,2012-12-08 07:53:00
2:02 AM,57.2,55.4,94,29.92,2.0,Calm,Calm,-,N/A,,Scattered Clouds,0,2012-12-08 08:02:00
2:38 AM,55.4,55.4,100,29.92,1.5,Calm,Calm,-,N/A,,Clear,0,2012-12-08 08:38:00
2:48 AM,55.4,53.6,94,29.92,8.0,Calm,Calm,-,N/A,,Clear,0,2012-12-08 08:48:00
2:53 AM,57.0,55.0,93,29.92,6.0,Calm,Calm,-,N/A,,Clear,0,2012-12-08 08:53:00
3:53 AM,55.9,54.0,93,29.93,0.5,Calm,Calm,-,N/A,Fog,Fog,0,2012-12-08 09:53:00
4:07 AM,55.4,53.6,94,29.93,1.8,ESE,5.8,-,N/A,,Clear,110,2012-12-08 10:07:00
4:12 AM,55.4,53.6,94,29.93,3.0,ESE,6.9,-,N/A,,Partly Cloudy,120,2012-12-08 10:12:00
5:46 AM,57.2,55.4,94,29.94,1.8,East,3.5,-,N/A,,Clear,100,2012-12-08 11:46:00
5:53 AM,57.0,55.0,93,29.94,1.0,ESE,4.6,-,N/A,,Mist,110,2012-12-08 11:53:00
5:59 AM,57.2,53.6,88,29.95,2.0,ESE,3.5,-,N/A,,Partly Cloudy,110,2012-12-08 11:59:00
6:10 AM,57.2,53.6,88,29.95,1.0,ESE,3.5,-,N/A,,Mist,120,2012-12-08 12:10:00
6:17 AM,57.2,55.4,94,29.95,0.5,Calm,Calm,-,N/A,Fog,Fog,0,2012-12-08 12:17:00
6:33 AM,57.2,55.4,94,29.96,0.2,Calm,Calm,-,N/A,Fog,Fog,0,2012-12-08 12:33:00
6:41 AM,55.4,55.4,100,29.96,0.5,Calm,Calm,-,N/A,Fog,Fog,0,2012-12-08 12:41:00
6:46 AM,55.4,53.6,94,29.96,2.0,SE,3.5,-,N/A,,Overcast,130,2012-12-08 12:46:00
6:51 AM,55.4,53.6,94,29.96,0.8,ESE,5.8,-,N/A,,Mist,120,2012-12-08 12:51:00
6:53 AM,55.9,54.0,93,29.96,0.5,ESE,5.8,-,N/A,Fog,Fog,120,2012-12-08 12:53:00
7:00 AM,57.2,53.6,88,29.95,0.2,ESE,5.8,-,N/A,Fog,Fog,110,2012-12-08 13:00:00
7:08 AM,57.2,55.4,94,29.96,0.8,ESE,3.5,-,N/A,,Mostly Cloudy,120,2012-12-08 13:08:00
7:15 AM,57.2,55.4,94,29.96,1.2,Calm,Calm,-,N/A,,Scattered Clouds,0,2012-12-08 13:15:00
7:25 AM,57.2,57.2,100,29.96,3.0,ESE,4.6,-,N/A,,Scattered Clouds,120,2012-12-08 13:25:00
7:53 AM,63.0,61.0,93,29.97,6.0,SE,6.9,-,N/A,,Scattered Clouds,140,2012-12-08 13:53:00
8:53 AM,66.9,63.0,87,29.98,10.0,SE,6.9,-,N/A,,Clear,140,2012-12-08 14:53:00
9:53 AM,72.0,64.0,76,29.99,10.0,SSE,6.9,-,N/A,,Overcast,160,2012-12-08 15:53:00
10:53 AM,73.9,62.1,66,29.99,10.0,South,9.2,-,N/A,,Partly Cloudy,190,2012-12-08 16:53:00
11:53 AM,75.0,62.1,64,29.96,10.0,SSW,8.1,-,N/A,,Overcast,200,2012-12-08 17:53:00
12:53 PM,75.9,62.1,62,29.94,10.0,SSW,8.1,-,N/A,,Overcast,210,2012-12-08 18:53:00
1:53 PM,75.9,61.0,60,29.92,10.0,SSW,8.1,-,N/A,,Overcast,200,2012-12-08 19:53:00
2:53 PM,75.9,62.1,62,29.92,10.0,SSW,6.9,-,N/A,,Overcast,200,2012-12-08 20:53:00
4:53 PM,71.1,62.1,73,29.92,10.0,South,6.9,-,N/A,,Clear,170,2012-12-08 22:53:00
5:53 PM,66.9,60.1,79,29.93,10.0,SSE,3.5,-,N/A,,Mostly Cloudy,160,2012-12-08 23:53:00
6:53 PM,66.0,59.0,78,29.95,10.0,SSE,3.5,-,N/A,,Clear,150,2012-12-09 00:53:00
7:53 PM,64.9,59.0,81,29.96,10.0,SSE,3.5,-,N/A,,Clear,150,2012-12-09 01:53:00
9:53 PM,61.0,57.9,90,29.96,10.0,SE,4.6,-,N/A,,Clear,130,2012-12-09 03:53:00
10:53 PM,62.1,59.0,90,29.96,10.0,SE,6.9,-,N/A,,Clear,130,2012-12-09 04:53:00
11:53 PM,61.0,57.9,90,29.95,10.0,SE,5.8,-,N/A,,Clear,130,2012-12-09 05:53:00